Morrisville, VT

3:49 AM EDT on April 26, 2018 (GMT -0400)
Morrisville Stowe State

Weather History for KMVL - November, 2013

Change the Weather History Date:

Wednesday, November 27, 2013

  Actual Average Record
Temperature  
Mean Temperature 32 °F 30 °F  
Max Temperature 35 °F 39 °F 63 °F (2015)
Min Temperature 28 °F 22 °F 6 °F (1996)
Degree Days  
Heating Degree Days 33 35  
Month to date heating degree days 814 792  
Since 1 July heating degree days 1631 1723  
Cooling Degree Days 0 0  
Month to date cooling degree days 0 0  
Year to date cooling degree days 401 265  
Moisture  
Dew Point 30 °F    
Average Humidity 84    
Maximum Humidity 96    
Minimum Humidity 72    
Precipitation  
Precipitation 1.00 in 0.10 in 1.00 in (2013)
Month to date precipitation 3.22 2.79  
Year to date precipitation 38.77 33.03  
Sea Level Pressure  
Sea Level Pressure 29.51 in    
Wind  
Wind Speed 4 mph (North)    
Max Wind Speed 18 mph    
Max Gust Speed 28 mph    
Visibility 4 miles    
Events Fog , Rain , Snow    
T = Trace of Precipitation, MM = Missing Value Source: NWS Daily Summary

Daily Weather History Graph

Daily Weather History Graph

Search for Another Location

Airport or City:

Astronomy

Nov. 27, 2013 Rise Set
Actual Time 7:02 AM EST 4:13 PM EST
Civil Twilight 6:29 AM EST 4:46 PM EST
Nautical Twilight 5:53 AM EST 5:22 PM EST
Astronomical Twilight 5:18 AM EST 5:57 PM EST
Moon 12:48 AM EST (11/27) 1:01 PM EST (11/27)
Length of Visible Light 10h 16m
Length of Day
9h 11m
Waning Crescent, 32% of the Moon is Illuminated
Nov 27
Waning Crescent
Dec 2
New
Dec 9
First Quarter
Dec 17
Full
Dec 25
Last Quarter

Hourly Weather History & Observations

Time (EST) Temp. Windchill Dew Point Humidity Pressure Visibility Wind Dir Wind Speed Gust Speed Precip Events Conditions
12:45 AM 30.2 °F - 28.4 °F 93% 29.98 in 1.8 mi Calm Calm - 0.00 in Snow Light Snow
12:54 AM 30.9 °F 27.5 °F 28.0 °F 89% 30.01 in 2.5 mi ESE 3.5 mph - 0.00 in Snow Light Snow
1:00 AM 30.2 °F - 28.4 °F 93% 29.97 in 3.0 mi Calm Calm - 0.00 in Snow Light Snow
1:51 AM 32.0 °F 28.7 °F 28.4 °F 87% 29.92 in 10.0 mi ESE 3.5 mph - 0.00 in   Overcast
1:54 AM 32.0 °F 28.7 °F 28.9 °F 88% 29.94 in 10.0 mi ESE 3.5 mph - 0.00 in   Overcast
2:15 AM 32.0 °F - 28.4 °F 87% 29.90 in 7.0 mi Calm Calm - 0.00 in Rain Light Freezing Rain
2:54 AM 32.0 °F - 30.0 °F 92% 29.88 in 4.0 mi Calm Calm - 0.00 in Rain Light Freezing Rain
3:21 AM 32.0 °F - 30.2 °F 93% 29.82 in 4.0 mi Calm Calm - N/A Rain Light Freezing Rain
3:43 AM 32.0 °F 28.7 °F 30.2 °F 93% 29.77 in 3.0 mi NNE 3.5 mph - N/A Rain Light Freezing Rain
3:54 AM 32.0 °F - 30.0 °F 92% 29.79 in 3.0 mi Calm Calm - N/A Rain Light Freezing Rain
4:09 AM 32.0 °F 28.7 °F 30.2 °F 93% 29.74 in 2.5 mi North 3.5 mph - 0.02 in Rain Light Freezing Rain
4:35 AM 33.8 °F 27.0 °F 30.2 °F 87% 29.67 in 3.0 mi North 8.1 mph - 0.08 in Rain Light Freezing Rain
4:54 AM 33.1 °F 26.9 °F 30.9 °F 92% 29.68 in 3.0 mi North 6.9 mph - 0.15 in Rain Light Freezing Rain
5:03 AM 33.8 °F 28.6 °F 30.2 °F 87% 29.63 in 3.0 mi North 5.8 mph - 0.04 in Rain Rain
5:12 AM 33.8 °F 27.0 °F 30.2 °F 87% 29.61 in 3.0 mi NNW 8.1 mph - 0.09 in Rain Heavy Rain
5:36 AM 33.8 °F 27.7 °F 32.0 °F 93% 29.59 in 5.0 mi NNW 6.9 mph - 0.16 in Rain Rain
5:54 AM 34.0 °F 28.0 °F 32.0 °F 92% 29.59 in 4.0 mi NNW 6.9 mph - 0.19 in Rain Rain
6:41 AM 33.8 °F - 33.8 °F 100% 29.50 in 3.0 mi Calm Calm - 0.11 in Rain Light Rain
6:54 AM 34.0 °F - 32.0 °F 92% 29.52 in 3.0 mi Calm Calm - 0.12 in Rain Light Rain
7:06 AM 33.8 °F - 30.2 °F 87% 29.49 in 2.0 mi Calm Calm - 0.01 in Rain Light Rain
7:13 AM 33.8 °F - 30.2 °F 87% 29.49 in 2.0 mi Calm Calm - 0.02 in Rain Light Rain
7:26 AM 33.8 °F - 32.0 °F 93% 29.49 in 1.8 mi Calm Calm - 0.04 in Rain Rain
7:33 AM 33.8 °F - 32.0 °F 93% 29.49 in 2.0 mi Calm Calm - 0.06 in Rain Light Rain
7:46 AM 33.8 °F - 32.0 °F 93% 29.48 in 1.0 mi Calm Calm - 0.08 in Rain Light Rain
7:49 AM 33.8 °F - 32.0 °F 93% 29.47 in 0.8 mi Calm Calm - 0.09 in Rain Light Rain
7:54 AM 33.1 °F - 32.0 °F 96% 29.50 in 1.0 mi Calm Calm - 0.10 in Rain Rain
8:00 AM 33.8 °F - 32.0 °F 93% 29.46 in 0.8 mi Calm Calm - 0.01 in Rain Light Rain
8:14 AM 33.8 °F - 32.0 °F 93% 29.45 in 1.2 mi Calm Calm - 0.03 in Rain Light Rain
8:28 AM 33.8 °F - 32.0 °F 93% 29.45 in 2.0 mi Calm Calm - 0.05 in Rain Light Rain
8:37 AM 33.8 °F - 32.0 °F 93% 29.45 in 1.2 mi Calm Calm - 0.06 in Rain Light Rain
8:48 AM 33.8 °F - 32.0 °F 93% 29.45 in 1.0 mi Calm Calm - 0.07 in Rain Light Rain
8:49 AM 33.8 °F - 32.0 °F 93% 29.44 in 0.8 mi Calm Calm - 0.07 in Rain Light Rain
8:54 AM 33.1 °F - 32.0 °F 96% 29.47 in 0.5 mi Calm Calm - 0.08 in Fog , Rain Light Rain
9:10 AM 33.8 °F - 32.0 °F 93% 29.42 in 0.5 mi Calm Calm - 0.02 in Fog , Rain Light Rain
9:25 AM 33.8 °F - 32.0 °F 93% 29.42 in 1.0 mi Calm Calm - 0.04 in Rain Light Rain
9:39 AM 33.8 °F - 32.0 °F 93% 29.42 in 0.5 mi Calm Calm - 0.05 in Fog , Rain Light Rain
9:54 AM 34.0 °F - 32.0 °F 92% 29.44 in 0.5 mi Calm Calm - 0.07 in Fog , Rain Light Rain
10:18 AM 33.8 °F - 32.0 °F 93% 29.40 in 1.0 mi Calm Calm - 0.04 in Rain Light Rain
10:54 AM 35.1 °F - 33.1 °F 92% 29.42 in 1.0 mi Calm Calm - 0.09 in Rain Light Rain
11:08 AM 35.6 °F - 33.8 °F 93% 29.38 in 0.8 mi Calm Calm - 0.03 in Rain Rain
11:14 AM 35.6 °F 31.7 °F 33.8 °F 93% 29.39 in 1.2 mi West 4.6 mph - 0.04 in Rain Light Rain
11:23 AM 35.6 °F 32.8 °F 33.8 °F 93% 29.37 in 3.0 mi NW 3.5 mph - 0.06 in Rain Light Rain
11:31 AM 35.6 °F 32.8 °F 33.8 °F 93% 29.36 in 7.0 mi NE 3.5 mph - 0.07 in Rain Light Rain
11:54 AM 35.1 °F 32.2 °F 33.1 °F 92% 29.42 in 9.0 mi ESE 3.5 mph - 0.09 in   Overcast
12:00 PM 33.8 °F 30.8 °F 33.8 °F 100% 29.37 in 1.8 mi Variable 3.5 mph - N/A   Overcast
12:09 PM 35.6 °F - 33.8 °F 93% 29.36 in 3.0 mi Calm Calm - 0.01 in   Overcast
12:27 PM 35.6 °F - 33.8 °F 93% 29.38 in 8.0 mi Calm Calm - 0.02 in   Overcast
12:54 PM 35.1 °F - 33.1 °F 92% 29.42 in 8.0 mi Calm Calm - 0.04 in   Overcast
1:13 PM 35.6 °F - 33.8 °F 93% 29.37 in 1.8 mi Calm Calm - 0.01 in Rain Light Rain
1:26 PM 35.6 °F - 33.8 °F 93% 29.38 in 3.0 mi Calm Calm - 0.02 in Rain Light Rain
1:35 PM 35.6 °F 31.7 °F 33.8 °F 93% 29.36 in 8.0 mi North 4.6 mph - 0.02 in   Overcast
1:42 PM 35.6 °F - 32.0 °F 87% 29.39 in 10.0 mi Calm Calm - 0.03 in   Overcast
1:54 PM 35.1 °F 30.1 °F 32.0 °F 89% 29.41 in 10.0 mi North 5.8 mph - 0.03 in   Overcast
2:54 PM 35.1 °F 27.9 °F 30.0 °F 82% 29.41 in 10.0 mi North 9.2 mph - 0.02 in Rain Light Rain
3:54 PM 34.0 °F 28.0 °F 30.0 °F 85% 29.43 in 10.0 mi North 6.9 mph - 0.01 in Rain Light Rain
4:07 PM 33.8 °F 28.6 °F 30.2 °F 87% 29.40 in 5.0 mi North 5.8 mph - 0.00 in Snow Light Snow
4:54 PM 33.1 °F - 30.9 °F 92% 29.43 in 3.0 mi Calm Calm - 0.00 in Snow Light Snow
5:00 PM 33.8 °F 28.6 °F 30.2 °F 87% 29.38 in 2.5 mi North 5.8 mph - 0.00 in Snow Light Snow
5:11 PM 33.8 °F - 30.2 °F 87% 29.40 in 1.2 mi Calm Calm - 0.00 in Snow Light Snow
5:54 PM 33.1 °F 27.7 °F 30.0 °F 89% 29.44 in 2.5 mi North 5.8 mph - 0.00 in Snow Light Snow
6:06 PM 32.0 °F 25.6 °F 28.4 °F 87% 29.40 in 3.0 mi North 6.9 mph - 0.00 in Snow Light Snow
6:44 PM 32.0 °F 25.6 °F 28.4 °F 87% 29.42 in 4.0 mi North 6.9 mph - 0.00 in Snow Light Snow
6:54 PM 32.0 °F 25.6 °F 28.0 °F 85% 29.44 in 3.0 mi NNW 6.9 mph - 0.00 in Snow Light Snow
7:03 PM 32.0 °F 25.6 °F 28.4 °F 87% 29.42 in 2.5 mi NNW 6.9 mph - 0.00 in Snow Light Snow
7:35 PM 32.0 °F - 28.4 °F 87% 29.43 in 1.5 mi Calm Calm - 0.00 in Snow Light Snow
7:54 PM 32.0 °F - 28.9 °F 88% 29.44 in 1.2 mi Calm Calm - 0.00 in Snow Light Snow
8:10 PM 30.2 °F - 28.4 °F 93% 29.45 in 2.5 mi Calm Calm - 0.00 in Snow Light Snow
8:39 PM 32.0 °F - 26.6 °F 80% 29.46 in 3.0 mi Calm Calm - 0.00 in Snow Light Snow
8:46 PM 32.0 °F - 26.6 °F 80% 29.47 in 2.0 mi Calm Calm - 0.00 in Snow Light Snow
8:54 PM 32.0 °F 27.5 °F 27.0 °F 82% 29.49 in 2.0 mi Variable 4.6 mph - 0.00 in Snow Light Snow
9:03 PM 32.0 °F 24.8 °F 26.6 °F 80% 29.47 in 3.0 mi NNW 8.1 mph - 0.00 in Snow Light Snow
9:08 PM 32.0 °F 26.4 °F 26.6 °F 80% 29.46 in 1.8 mi Variable 5.8 mph - 0.00 in Snow Light Snow
9:16 PM 32.0 °F 27.5 °F 26.6 °F 80% 29.45 in 3.0 mi Variable 4.6 mph - 0.00 in Snow Light Snow
9:42 PM 32.0 °F 23.0 °F 26.6 °F 80% 29.45 in 8.0 mi NNW 11.5 mph 19.6 mph 0.00 in   Overcast
9:54 PM 32.0 °F 22.5 °F 25.0 °F 75% 29.48 in 7.0 mi NNW 12.7 mph 21.9 mph 0.00 in Snow Light Snow
10:05 PM 32.0 °F 23.6 °F 24.8 °F 75% 29.46 in 6.0 mi NW 10.4 mph 27.6 mph 0.00 in Snow Light Snow
10:54 PM 30.0 °F 21.7 °F 24.1 °F 79% 29.49 in 10.0 mi NNW 9.2 mph 20.7 mph 0.00 in   Overcast
11:54 PM 28.0 °F 18.6 °F 21.0 °F 75% 29.51 in 7.0 mi NW 10.4 mph 25.3 mph 0.00 in Snow Light Snow